This is the latest recevied weather packets stored in our database for station/object BV3BA-13. If no packets are shown the sender has not sent any weather packets the latest 10 day(s).
| Time | Temp. | Humidity | Pressure | Rain* | Wind** | Luminosity | Snow |
|---|---|---|---|---|---|---|---|
| 1777903623 | 17.78° C | 83% | 1012.6 hPa | 0 mm | - | - | - |
| 1777901824 | 17.78° C | 83% | 1012.6 hPa | 0 mm | - | - | - |
| 1777901223 | 17.78° C | 82% | 1012.7 hPa | 0 mm | - | - | - |
| 1777900623 | 17.78° C | 82% | 1012.8 hPa | 0 mm | - | - | - |
| 1777900023 | 17.22° C | 84% | 1012.8 hPa | 0.51 mm | - | - | - |
| 1777899424 | 17.22° C | 85% | 1012.6 hPa | 0.51 mm | - | - | - |
| 1777898824 | 17.22° C | 83% | 1012.6 hPa | 0.51 mm | - | - | - |
| 1777898224 | 17.22° C | 83% | 1012.8 hPa | 0.51 mm | - | - | - |
| 1777897624 | 17.22° C | 82% | 1013 hPa | 0.51 mm | - | - | - |
| 1777897023 | 17.22° C | 82% | 1013.2 hPa | 1.02 mm | - | - | - |
| 1777896424 | 17.22° C | 81% | 1013.4 hPa | 0.51 mm | - | - | - |
| 1777895824 | 17.22° C | 83% | 1013.3 hPa | 1.02 mm | - | - | - |
| 1777894624 | 17.22° C | 85% | 1013.3 hPa | 1.52 mm | - | - | - |
| 1777894023 | 17.22° C | 87% | 1013.2 hPa | 1.52 mm | - | - | - |
| 1777893424 | 17.22° C | 83% | 1013 hPa | 1.52 mm | - | - | - |
| 1777892823 | 17.22° C | 82% | 1012.9 hPa | 2.03 mm | - | - | - |
| 1777892223 | 17.78° C | 77% | 1012.7 hPa | 1.52 mm | - | - | - |
| 1777891023 | 17.78° C | 76% | 1012.5 hPa | 1.02 mm | - | - | - |
| 1777890423 | 18.33° C | 73% | 1012.4 hPa | 1.02 mm | - | - | - |
| 1777889823 | 19.44° C | 70% | 1012.3 hPa | 0.51 mm | - | - | - |
| 1777889223 | 20° C | 67% | 1012.2 hPa | 0 mm | - | - | - |
| 1777888625 | 20.56° C | 66% | 1011.8 hPa | 0 mm | - | - | - |
| 1777887424 | 21.11° C | 68% | 1011.5 hPa | 0 mm | - | - | - |
| 1777886824 | 21.11° C | 69% | 1011.4 hPa | 0 mm | - | - | - |
| 1777886223 | 21.67° C | 68% | 1011.1 hPa | 0 mm | - | - | - |
* Rain latest hour (hover to see other rain measurements)
** Current wind speed in m/s (hover to see current wind gust speed)